User: anonymous   Login
Location: Schommer Observatory
(40.5200°N, 74.4500°W)
Time: 14:17:59
(UTC-05:00)
Language:

DOVE 4 - Orbit

View from above orbital plane
View from above orbital plane
View from above satellite
View from above satellite

Ground track
Ground track

The orbit data is extracted from the following two-line orbital elements,

1 39430U 13066Q   18346.53153225  .00000167  00000-0  38893-4 0  9992
2 39430  97.7204 310.7797 0152314 127.3612 234.1554 14.59164444269162
Epoch (UTC): 12 December 2018 12:45:24
Eccentricity: 0.0152314
inclination: 97.7204°
perigee height: 588 km
apogee height: 803 km
right ascension of ascending node: 310.7797°
argument of perigee: 127.3612°
revolutions per day: 14.59164444
mean anomaly at epoch: 234.1554°
orbit number at epoch: 26916

The dashed part of the orbit path shows where the satellite is in the earth's shadow,  

DLR